Location: Unspecified
(0.0000°N, 0.0000°E)
Time: 19:18:19
(UTC+00:00)

Vanguard 1 Rocket - Pass Details

Date: 27 November 2019
Orbit: 650 x 4226 km, 34.3° (Epoch: 09 December)

Event Time Altitude Azimuth Distance (km) Brightness Sun altitude
Rises 06:52:48 0° 337° (NNW) 3,307 9.9 15.2°
Reaches altitude 10° 06:55:28 10° 354° (N) 2,632 9.6 15.8°
Maximum altitude 07:00:17 22° 45° (NE) 2,400 10.0 16.9°
Drops below altitude 10° 07:07:29 10° 92° (E) 4,119 12.3 18.6°
Sets 07:13:03 0° 104° (ESE) 5,828 13.1 19.9°
